FW8355 Weather Reports


time (UTC)temp
F
wind
direction
speed
knots
gust
knots
rain 1hr
in
rain 24hr
in
rain mn
in
humidity
%
barometer
mb
20260507162016 77 203 2.6 5.2 0.00 0.19 0.13 53 1007.5
20260507161016 77 203 3.5 7.0 0.00 0.19 0.13 52 1007.6
20260507160016 79 203 2.6 5.2 0.00 0.19 0.13 51 1007.8
20260507155016 79 203 3.5 7.0 0.00 0.19 0.13 50 1007.9
20260507154016 80 225 1.7 4.3 0.00 0.19 0.13 50 1007.9
20260507153016 80 203 0.9 3.5 0.00 0.19 0.13 50 1007.9
20260507152036 80 225 2.6 6.1 0.00 0.19 0.13 50 1007.9
20260507151017 81 225 1.7 5.2 0.00 0.19 0.13 49 1008.0
20260507150016 81 203 2.6 5.2 0.00 0.19 0.13 48 1008.1
20260507145057 81 90 3.5 7.0 0.00 0.19 0.13 44 1008.1
20260507144015 80 68 1.7 6.1 0.00 0.19 0.13 42 1008.2
20260507143016 80 158 0.9 3.5 0.00 0.19 0.13 43 1008.2
20260507142016 80 68 1.7 5.2 0.00 0.19 0.13 41 1008.3
20260507141015 80 23 3.5 7.0 0.00 0.19 0.13 42 1008.5
20260507140016 80 113 0.9 2.6 0.00 0.19 0.13 46 1008.5
20260507135016 80 0 2.6 6.1 0.00 0.19 0.13 45 1008.5
20260507134016 80 68 1.7 5.2 0.00 0.19 0.13 44 1008.7
20260507133015 79 23 1.7 7.0 0.00 0.19 0.13 44 1008.9
20260507132016 79 113 2.6 7.0 0.00 0.19 0.13 45 1009.1
20260507131015 79 45 0.9 3.5 0.00 0.19 0.13 46 1009.2
20260507130016 78 113 3.5 6.1 0.00 0.19 0.13 47 1009.5
20260507125015 77 113 2.6 5.2 0.00 0.19 0.13 48 1009.8
20260507124016 78 203 0.9 3.5 0.00 0.19 0.13 48 1009.7
20260507123015 77 203 2.6 5.2 0.00 0.19 0.13 49 1009.8
20260507122016 77 113 1.7 5.2 0.00 0.19 0.13 52 1010.0
20260507121035 77 113 3.5 5.2 0.00 0.19 0.13 52 1010.0
20260507120016 77 90 1.7 5.2 0.00 0.19 0.13 48 1010.1
20260507115015 78 113 2.6 6.1 0.00 0.19 0.13 50 1010.2
20260507114016 78 203 1.7 5.2 0.00 0.19 0.13 50 1010.4
20260507113016 78 203 1.7 5.2 0.00 0.19 0.13 51 1010.5
20260507112017 78 180 0.9 4.3 0.00 0.19 0.13 53 1010.6
20260507111017 76 113 2.6 6.1 0.00 0.19 0.13 56 1010.8
20260507110017 77 113 0.9 3.5 0.00 0.19 0.13 57 1011.1
20260507105037 77 203 0.9 3.5 0.00 0.19 0.13 59 1011.2
20260507104017 75 225 0.9 2.6 0.00 0.19 0.13 59 1011.3
20260507103017 75 203 1.7 4.3 0.00 0.19 0.13 61 1011.5
20260507102017 73 135 0.9 3.5 0.00 0.19 0.13 62 1011.4
20260507101017 73 113 1.7 5.2 0.00 0.19 0.13 63 1011.5
20260507100018 73 90 1.7 5.2 0.00 0.19 0.13 64 1011.4
20260507095017 73 135 2.6 6.1 0.00 0.19 0.13 63 1011.4
20260507094017 72 113 2.6 5.2 0.00 0.19 0.13 63 1011.5
20260507093017 73 113 2.6 5.2 0.00 0.19 0.13 63 1011.4
20260507092017 73 293 0.9 2.6 0.00 0.19 0.13 63 1011.5
20260507091037 72 203 0.9 3.5 0.00 0.19 0.13 66 1011.5
20260507090017 70 135 0.9 3.5 0.00 0.19 0.13 72 1011.5
20260507085017 69 0.0 0.0 0.00 0.19 0.13 73 1011.7
20260507084017 68 113 0.9 2.6 0.00 0.19 0.13 74 1011.7
20260507083017 68 0.0 0.9 0.00 0.19 0.13 75 1011.7
20260507082037 67 0.0 1.7 0.00 0.19 0.13 79 1011.6
20260507081017 66 113 1.7 3.5 0.00 0.19 0.13 77 1011.5
20260507080017 66 113 2.6 5.2 0.00 0.19 0.13 78 1011.3
20260507075037 67 90 2.6 4.3 0.00 0.19 0.13 76 1011.2
20260507074037 68 68 2.6 5.2 0.00 0.19 0.13 68 1011.2
20260507073017 68 68 3.5 7.0 0.00 0.19 0.13 67 1011.1
20260507072017 66 45 3.5 7.0 0.00 0.19 0.13 73 1011.1
20260507071017 65 23 5.2 10.4 0.00 0.19 0.13 72 1011.1
20260507070017 65 23 1.7 3.5 0.00 0.19 0.13 76 1011.3
20260507065017 64 45 2.6 5.2 0.00 0.19 0.13 76 1011.3
20260507064017 63 68 2.6 7.8 0.00 0.19 0.13 77 1011.3
20260507063017 62 23 3.5 5.2 0.00 0.19 0.13 81 1011.3
20260507062017 61 68 0.9 1.7 0.00 0.19 0.13 84 1011.4
20260507061017 61 0.0 2.6 0.00 0.19 0.13 81 1011.4
20260507060017 61 45 1.7 4.3 0.00 0.19 0.13 82 1011.3
20260507055017 61 68 1.7 4.3 0.00 0.19 0.13 82 1011.2
20260507054057 61 45 4.3 8.7 0.00 0.19 0.13 82 1011.1
20260507053017 60 23 6.1 9.6 0.01 0.19 0.13 85 1011.1
20260507052017 60 23 4.3 8.7 0.01 0.19 0.13 86 1011.2
20260507051017 60 23 6.1 13.9 0.01 0.19 0.13 85 1011.3
20260507050018 59 23 6.1 13.9 0.01 0.19 0.13 87 1011.2
20260507045037 59 45 7.0 13.0 0.01 0.19 0.13 87 1011.1
20260507044017 59 68 3.5 9.6 0.01 0.19 0.13 88 1011.2
20260507043037 59 68 5.2 9.6 0.00 0.18 0.13 88 1011.0
20260507042016 59 68 3.5 7.0 0.00 0.18 0.13 89 1011.2
20260507041017 59 45 3.5 7.0 0.00 0.18 0.13 89 1011.3
20260507040037 59 45 3.5 6.1 0.00 0.18 0.13 88 1011.5
20260507035017 59 23 5.2 9.6 0.00 0.18 0.13 88 1011.7
20260507034016 58 23 5.2 10.4 0.00 0.18 0.13 89 1012.1
20260507033016 58 45 3.5 7.8 0.00 0.18 0.13 90 1012.3
20260507032036 58 45 0.9 7.0 0.01 0.18 0.13 90 1012.7
20260507031017 58 68 0.9 5.2 0.01 0.18 0.13 91 1012.6
20260507030017 58 45 2.6 5.2 0.02 0.18 0.13 91 1012.4
20260507025016 58 45 2.6 5.2 0.03 0.18 0.13 92 1012.3
20260507024017 57 68 2.6 5.2 0.04 0.18 0.13 91 1012.2
20260507023017 58 68 1.7 4.3 0.05 0.18 0.13 92 1012.2
20260507022036 57 0 3.5 6.1 0.04 0.17 0.12 92 1012.3
20260507021017 57 68 2.6 5.2 0.04 0.17 0.12 92 1012.3
20260507020016 57 338 2.6 6.1 0.02 0.16 0.10 92 1012.1
20260507015016 57 338 0.9 2.6 0.02 0.15 0.09 91 1012.1
20260507014016 57 135 0.9 0.9 0.01 0.14 0.09 91 1012.2
20260507013016 57 0.0 1.7 0.00 0.13 0.08 92 1012.1
20260507012016 57 0.0 1.7 0.00 0.13 0.08 92 1012.0
20260507011016 57 0.0 0.9 0.01 0.13 0.08 91 1011.9
20260507010036 57 68 1.7 4.3 0.02 0.13 0.08 92 1011.8
20260507005016 57 68 1.7 3.5 0.02 0.13 0.08 92 1011.7
20260507004016 57 0.0 1.7 0.04 0.13 0.08 92 1011.8
20260507003016 57 23 2.6 5.2 0.05 0.13 0.08 91 1012.0
20260507002016 57 23 4.3 8.7 0.06 0.13 0.08 91 1012.2
20260507001017 57 45 4.3 10.4 0.05 0.13 0.07 90 1012.3
20260507000036 57 68 1.7 5.2 0.05 0.12 0.06 91 1012.1
20260506235016 57 68 0.9 2.6 0.04 0.11 0.06 90 1012.2
20260506234036 57 23 1.7 3.5 0.02 0.09 0.04 90 1012.5
20260506233016 57 68 2.6 4.3 0.02 0.09 0.03 90 1012.7
20260506232016 58 113 2.6 7.0 0.02 0.08 0.02 90 1012.8
20260506231016 58 23 1.7 3.5 0.02 0.08 0.02 89 1012.6
20260506230016 57 23 3.5 7.8 0.02 0.07 0.02 90 1012.9
20260506225016 57 45 1.7 4.3 0.02 0.07 0.02 90 1013.2
20260506224016 58 45 2.6 5.2 0.02 0.07 0.02 90 1013.1
20260506223016 58 68 0.9 3.5 0.02 0.06 0.01 90 1013.1
20260506222016 58 45 3.5 7.8 0.02 0.06 0.01 90 1012.8
20260506221016 58 23 3.5 7.0 0.02 0.06 0.00 90 1012.8
20260506220016 58 45 2.6 6.1 0.02 0.06 0.06 90 1012.9
20260506215016 58 23 0.9 2.6 0.02 0.06 0.06 90 1012.9
20260506214017 58 0.0 0.9 0.01 0.05 0.05 90 1013.2
20260506213016 58 338 1.7 4.3 0.01 0.05 0.05 89 1013.1
20260506212016 58 338 1.7 3.5 0.01 0.04 0.04 89 1013.1
20260506211016 59 338 0.9 4.3 0.01 0.04 0.04 90 1013.2
20260506210036 59 0.0 1.7 0.01 0.04 0.04 91 1013.3
20260506205016 59 0.0 2.6 0.02 0.04 0.04 91 1013.3
20260506204016 59 45 1.7 2.6 0.02 0.04 0.04 91 1013.4
20260506203016 60 23 1.7 3.5 0.04 0.04 0.04 89 1013.5
20260506202016 61 0.0 0.0 0.03 0.03 0.03 88 1013.6
20260506201016 61 203 1.7 2.6 0.03 0.03 0.03 86 1013.7
20260506200016 61 0.0 2.6 0.03 0.03 0.03 84 1013.8
20260506195016 62 270 0.9 3.5 0.02 0.02 0.02 84 1013.8
20260506194016 62 270 2.6 9.6 0.02 0.02 0.02 82 1013.8
20260506193016 62 0.0 2.6 0.00 0.00 0.00 80 1013.5
20260506192018 62 0.0 0.0 0.00 0.00 0.00 79 1013.0
20260506191036 62 0.0 0.0 0.00 0.00 0.00 79 1012.6
20260506190017 62 0.0 0.9 0.00 0.00 0.00 78 1012.3
20260506185016 62 0.0 0.9 0.00 0.00 0.00 78 1012.0
20260506184016 63 0.0 0.0 0.00 0.00 0.00 78 1011.7
20260506183016 63 0.0 0.0 0.00 0.00 0.00 77 1011.7
20260506182016 64 0.0 0.0 0.00 0.00 0.00 76 1011.7
20260506181016 64 0.0 0.0 0.00 0.00 0.00 75 1011.6
20260506180036 64 0.0 0.0 0.00 0.00 0.00 74 1011.7
20260506175016 65 0.0 0.9 0.00 0.00 0.00 73 1011.6
20260506174017 65 0.0 1.7 0.00 0.00 0.00 73 1011.7
20260506173016 65 0.0 3.5 0.00 0.00 0.00 73 1011.7
20260506172016 65 203 1.7 4.3 0.00 0.00 0.00 72 1011.6
20260506171016 65 203 4.3 7.8 0.00 0.00 0.00 72 1011.7
20260506170036 66 203 4.3 7.0 0.00 0.00 0.00 71 1011.7
20260506165016 66 203 2.6 5.2 0.00 0.00 0.00 70 1011.6
20260506164016 67 203 2.6 4.3 0.00 0.00 0.00 68 1011.7
20260506163018 67 203 2.6 6.1 0.00 0.00 0.00 67 1011.7